GW5799 Weather Reports


time (UTC)temp
F
wind
direction
speed
knots
gust
knots
rain 1hr
in
rain 24hr
in
rain mn
in
humidity
%
barometer
mb
20260505225422 56 98 7.8 12.2 0.00 0.00 0.00 77 1030.6
20260505224917 56 91 7.0 10.4 0.00 0.00 0.00 77 1030.5
20260505224415 56 88 6.1 13.0 0.00 0.00 0.00 77 1030.5
20260505223912 56 97 7.8 12.2 0.00 0.00 0.00 77 1030.5
20260505223409 55 104 4.3 13.0 0.00 0.00 0.00 78 1030.6
20260505222905 55 108 9.6 11.3 0.00 0.00 0.00 78 1030.5
20260505222401 55 100 8.7 13.0 0.00 0.00 0.00 78 1030.4
20260505221858 55 99 7.8 11.3 0.00 0.00 0.00 79 1030.5
20260505221355 55 112 8.7 9.6 0.00 0.00 0.00 79 1030.4
20260505220852 55 114 5.2 9.6 0.00 0.00 0.00 78 1030.2
20260505220349 55 124 6.1 11.3 0.00 0.00 0.00 78 1030.3
20260505215847 55 125 7.8 9.6 0.00 0.00 0.00 77 1030.2
20260505215345 56 117 6.1 8.7 0.00 0.00 0.00 77 1030.3
20260505214842 56 100 6.1 12.2 0.00 0.00 0.00 76 1030.2
20260505214340 56 105 7.0 10.4 0.00 0.00 0.00 77 1030.3
20260505213837 56 107 6.1 12.2 0.00 0.00 0.00 77 1030.2
20260505213335 56 101 8.7 12.2 0.00 0.00 0.00 77 1029.9
20260505212830 56 100 7.0 11.3 0.00 0.00 0.00 76 1030.0
20260505212328 56 124 8.7 13.0 0.00 0.00 0.00 77 1029.9
20260505211823 56 111 8.7 11.3 0.00 0.00 0.00 76 1029.9
20260505211322 56 91 8.7 11.3 0.00 0.00 0.00 77 1029.8
20260505210818 56 102 6.1 10.4 0.00 0.00 0.00 76 1030.0
20260505210315 56 89 6.1 9.6 0.00 0.00 0.00 76 1029.9
20260505205812 56 112 8.7 13.0 0.00 0.00 0.00 76 1029.8
20260505205310 56 103 7.8 12.2 0.00 0.00 0.00 76 1030.0
20260505204806 56 84 6.1 12.2 0.00 0.00 0.00 76 1029.9
20260505204304 56 91 7.0 13.0 0.00 0.00 0.00 76 1029.9
20260505203801 56 97 7.8 13.0 0.00 0.00 0.00 76 1029.8
20260505203258 56 92 6.1 12.2 0.00 0.00 0.00 76 1029.7
20260505202754 56 89 6.1 11.3 0.00 0.00 0.00 76 1029.8
20260505202250 56 87 7.0 10.4 0.00 0.00 0.00 76 1029.7
20260505201747 56 84 7.0 13.0 0.00 0.00 0.00 76 1029.4
20260505201244 56 88 7.8 12.2 0.00 0.00 0.00 75 1029.6
20260505200743 56 83 9.6 10.4 0.00 0.00 0.00 76 1029.7
20260505200240 56 89 6.1 11.3 0.00 0.00 0.00 76 1029.8
20260505195735 56 101 6.1 10.4 0.00 0.00 0.00 76 1029.6
20260505195233 55 114 7.0 8.7 0.00 0.00 0.00 76 1029.8
20260505194730 55 102 4.3 8.7 0.00 0.00 0.00 75 1029.7
20260505194226 55 100 6.1 7.0 0.00 0.00 0.00 75 1029.7
20260505193722 55 102 2.6 6.1 0.00 0.00 0.00 75 1029.7
20260505193219 55 98 3.5 7.0 0.00 0.00 0.00 75 1029.7
20260505192718 55 119 7.0 8.7 0.00 0.00 0.00 75 1029.7
20260505192215 55 93 5.2 8.7 0.00 0.00 0.00 75 1029.7
20260505191713 55 94 5.2 8.7 0.00 0.00 0.00 75 1029.5
20260505191211 55 110 6.1 7.0 0.00 0.00 0.00 74 1029.6
20260505190707 55 123 6.1 7.0 0.00 0.00 0.00 74 1029.8
20260505190207 55 109 4.3 8.7 0.00 0.00 0.00 74 1029.8
20260505185704 55 109 4.3 6.1 0.00 0.00 0.00 73 1029.8
20260505185200 55 123 7.0 8.7 0.00 0.00 0.00 73 1029.6
20260505184656 55 111 7.0 7.0 0.00 0.00 0.00 73 1029.7
20260505184154 55 125 6.1 7.8 0.00 0.00 0.00 73 1029.6
20260505183651 55 108 4.3 7.0 0.00 0.00 0.00 72 1029.5
20260505183148 56 106 7.8 9.6 0.00 0.00 0.00 72 1029.5
20260505182645 55 118 7.0 8.7 0.00 0.00 0.00 72 1029.8
20260505182142 55 117 6.1 7.8 0.00 0.00 0.00 72 1029.8
20260505181638 55 119 4.3 7.8 0.00 0.00 0.00 72 1029.7
20260505181136 55 132 6.1 7.8 0.00 0.00 0.00 72 1029.6
20260505180631 55 118 7.0 7.8 0.00 0.00 0.00 72 1029.7
20260505180129 56 115 5.2 7.8 0.00 0.00 0.00 71 1029.7
20260505175625 56 126 5.2 6.1 0.00 0.00 0.00 71 1029.6
20260505175121 56 116 6.1 8.7 0.00 0.00 0.00 71 1029.5
20260505174618 56 115 7.0 7.8 0.00 0.00 0.00 70 1029.6
20260505174114 57 104 4.3 7.8 0.00 0.00 0.00 70 1029.5
20260505173611 57 114 7.0 8.7 0.00 0.00 0.00 69 1029.5
20260505173108 57 117 7.0 9.6 0.00 0.00 0.00 69 1029.2
20260505172605 57 127 7.8 7.8 0.00 0.00 0.00 70 1029.3
20260505172102 57 129 7.8 8.7 0.00 0.00 0.00 70 1029.4
20260505171556 57 128 5.2 7.0 0.00 0.00 0.00 70 1029.4
20260505171054 57 116 5.2 7.0 0.00 0.00 0.00 70 1029.3
20260505170550 57 110 4.3 8.7 0.00 0.00 0.00 70 1029.3
20260505170047 57 113 5.2 8.7 0.00 0.00 0.00 69 1029.3
20260505165542 57 118 5.2 7.8 0.00 0.00 0.00 69 1029.3
20260505165038 57 116 7.8 10.4 0.00 0.00 0.00 69 1029.5
20260505164534 57 122 4.3 8.7 0.00 0.00 0.00 69 1029.6
20260505164032 57 130 4.3 7.0 0.00 0.00 0.00 69 1029.4
20260505163531 57 127 4.3 8.7 0.00 0.00 0.00 69 1029.3
20260505163027 57 123 7.0 7.8 0.00 0.00 0.00 70 1029.3
20260505162520 57 137 5.2 7.8 0.00 0.00 0.00 70 1029.2
20260505162017 57 122 6.1 7.8 0.00 0.00 0.00 70 1029.1
20260505161514 57 129 4.3 7.0 0.00 0.00 0.00 70 1029.3
20260505161011 57 122 3.5 6.1 0.00 0.00 0.00 70 1029.1
20260505160509 57 134 5.2 7.8 0.00 0.00 0.00 71 1029.2
20260505152945 57 138 5.2 7.0 0.00 0.00 0.00 72 1029.1
20260505152443 57 140 6.1 7.8 0.00 0.00 0.00 71 1029.2
20260505151943 58 138 5.2 7.8 0.00 0.00 0.00 70 1029.0
20260505151439 59 144 6.1 7.8 0.00 0.00 0.00 70 1029.0
20260505150937 58 131 4.3 7.8 0.00 0.00 0.00 70 1029.1
20260505150433 58 133 5.2 7.8 0.00 0.00 0.00 72 1028.8
20260505140403 57 128 4.3 6.1 0.00 0.00 0.00 78 1029.2
20260505124817 58 135 2.6 4.3 0.00 0.00 0.00 78 1029.0
20260505124314 58 125 2.6 3.5 0.00 0.00 0.00 78 1029.0
20260505123810 58 133 1.7 3.5 0.00 0.00 0.00 78 1029.0
20260505123307 58 143 2.6 3.5 0.00 0.00 0.00 77 1029.1
20260505122802 58 134 3.5 4.3 0.00 0.00 0.00 78 1028.9
20260505122300 58 145 3.5 5.2 0.00 0.00 0.00 78 1029.0
20260505121756 58 148 4.3 4.3 0.00 0.00 0.00 78 1028.8
20260505121253 58 143 3.5 3.5 0.00 0.00 0.00 77 1028.7
20260505120750 58 148 2.6 3.5 0.00 0.00 0.00 77 1028.9
20260505120246 59 159 1.7 3.5 0.00 0.00 0.00 76 1028.7
20260505115745 59 151 3.5 3.5 0.00 0.00 0.00 76 1028.7
20260505115242 59 154 1.7 3.5 0.00 0.00 0.00 75 1028.8
20260505114739 59 157 1.7 3.5 0.00 0.00 0.00 75 1028.8
20260505114235 59 152 2.6 4.3 0.00 0.00 0.00 75 1028.6
20260505113732 59 146 2.6 4.3 0.00 0.00 0.00 74 1028.6
20260505113229 59 150 4.3 4.3 0.00 0.00 0.00 74 1028.5
20260505112725 59 145 3.5 4.3 0.00 0.00 0.00 74 1028.6
20260505112223 59 149 2.6 4.3 0.00 0.00 0.00 73 1028.6
20260505111723 60 150 2.6 4.3 0.00 0.00 0.00 73 1028.6
20260505111219 60 154 1.7 3.5 0.00 0.00 0.00 73 1028.6
20260505110715 60 159 2.6 4.3 0.00 0.00 0.00 72 1028.6
20260505110213 60 143 3.5 5.2 0.00 0.00 0.00 72 1028.4
20260505102148 61 146 2.6 2.6 0.00 0.00 0.00 73 1028.1
20260505101647 61 141 1.7 1.7 0.00 0.00 0.00 73 1028.1
20260505101143 62 160 0.9 1.7 0.00 0.00 0.00 72 1028.1
20260505100639 62 193 2.6 2.6 0.00 0.00 0.00 72 1028.0
20260505100136 62 202 1.7 3.5 0.00 0.00 0.00 72 1028.0
20260505095632 63 197 3.5 4.3 0.00 0.00 0.00 71 1027.9
20260505095129 63 204 3.5 4.3 0.00 0.00 0.00 71 1027.9
20260505094625 63 193 3.5 6.1 0.00 0.00 0.00 71 1027.9
20260505094122 63 205 5.2 5.2 0.00 0.00 0.00 71 1027.7
20260505093618 64 204 4.3 5.2 0.00 0.00 0.00 71 1027.8
20260505093115 64 209 4.3 7.0 0.00 0.00 0.00 70 1027.8
20260505092612 64 203 4.3 7.8 0.00 0.00 0.00 70 1027.9
20260505092111 65 200 5.2 9.6 0.00 0.00 0.00 70 1027.8
20260505091607 65 210 5.2 8.7 0.00 0.00 0.00 70 1027.9
20260505091106 66 201 4.3 8.7 0.00 0.00 0.00 69 1027.7
20260505090603 66 205 6.1 9.6 0.00 0.00 0.00 68 1027.7
20260505090101 66 207 5.2 9.6 0.00 0.00 0.00 67 1027.8
20260505085558 66 213 7.0 12.2 0.00 0.00 0.00 67 1027.9
20260505085057 66 213 9.6 12.2 0.00 0.00 0.00 66 1027.7
20260505084554 67 205 7.8 11.3 0.00 0.00 0.00 66 1027.7
20260505084052 67 214 10.4 12.2 0.00 0.00 0.00 65 1027.8
20260505083549 67 207 11.3 12.2 0.00 0.00 0.00 64 1027.5
20260505083046 67 205 8.7 11.3 0.00 0.00 0.00 64 1027.7
20260505082541 68 220 7.0 12.2 0.00 0.00 0.00 64 1027.6
20260505082039 67 220 8.7 13.0 0.00 0.00 0.00 64 1027.6
20260505081535 68 215 7.8 12.2 0.00 0.00 0.00 64 1027.5
20260505081032 68 203 12.2 13.0 0.00 0.00 0.00 63 1027.6
20260505080528 68 211 9.6 11.3 0.00 0.00 0.00 64 1027.6
20260505080025 68 216 10.4 12.2 0.00 0.00 0.00 63 1027.7
20260505075521 68 210 9.6 13.0 0.00 0.00 0.00 64 1027.7
20260505075018 68 207 8.7 12.2 0.00 0.00 0.00 64 1027.6
20260505074515 68 198 7.0 12.2 0.00 0.00 0.00 64 1027.6
20260505074012 68 205 10.4 13.0 0.00 0.00 0.00 63 1027.7
20260505073510 68 230 7.8 13.9 0.00 0.00 0.00 62 1027.8
20260505073008 69 213 11.3 13.9 0.00 0.00 0.00 61 1027.6
20260505072503 69 213 9.6 12.2 0.00 0.00 0.00 62 1027.7
20260505071959 68 208 9.6 13.9 0.00 0.00 0.00 61 1027.7
20260505071455 69 223 7.0 13.9 0.00 0.00 0.00 61 1027.7
20260505070953 69 210 7.8 13.9 0.00 0.00 0.00 60 1027.8
20260505070450 69 215 11.3 13.9 0.00 0.00 0.00 60 1027.6
20260505065946 69 208 11.3 13.0 0.00 0.00 0.00 61 1027.8
20260505065442 69 225 7.8 14.8 0.00 0.00 0.00 60 1027.8
20260505064939 69 225 7.0 14.8 0.00 0.00 0.00 60 1027.5
20260505064436 69 225 11.3 13.0 0.00 0.00 0.00 58 1027.4
20260505063934 69 223 12.2 12.2 0.00 0.00 0.00 59 1027.5
20260505063430 70 211 7.8 13.0 0.00 0.00 0.00 58 1027.5
20260505062927 70 219 9.6 10.4 0.00 0.00 0.00 59 1027.6
20260505062425 70 209 7.0 13.0 0.00 0.00 0.00 59 1027.4
20260505061921 70 234 7.8 13.0 0.00 0.00 0.00 58 1027.6
20260505061419 71 218 10.4 10.4 0.00 0.00 0.00 57 1027.4
20260505060916 70 203 5.2 8.7 0.00 0.00 0.00 58 1027.6
20260505060413 69 213 7.8 10.4 0.00 0.00 0.00 59 1027.6
20260505055910 69 226 7.8 10.4 0.00 0.00 0.00 59 1027.7
20260505055406 70 229 8.7 11.3 0.00 0.00 0.00 59 1027.6
20260505054902 69 226 4.3 9.6 0.00 0.00 0.00 60 1027.6
20260505054400 69 211 7.8 8.7 0.00 0.00 0.00 59 1027.4
20260505053858 69 225 6.1 9.6 0.00 0.00 0.00 59 1027.5
20260505053355 69 228 7.8 10.4 0.00 0.00 0.00 59 1027.5
20260505052852 69 210 7.0 9.6 0.00 0.00 0.00 59 1027.5
20260505052348 69 215 7.8 10.4 0.00 0.00 0.00 59 1027.6
20260505051846 69 234 7.0 9.6 0.00 0.00 0.00 59 1027.7
20260505051343 69 216 11.3 12.2 0.00 0.00 0.00 59 1027.5
20260505050841 69 223 6.1 9.6 0.00 0.00 0.00 59 1027.7
20260505050339 69 239 5.2 10.4 0.00 0.00 0.00 59 1027.8
20260505041306 70 7 0.0 4.3 0.00 0.00 0.00 51 1028.4
20260505040803 71 328 4.3 5.2 0.00 0.00 0.00 49 1028.5
20260505040301 72 344 3.5 6.1 0.00 0.00 0.00 48 1028.6
20260505035757 70 149 0.9 3.5 0.00 0.00 0.00 51 1028.6
20260505035253 71 45 5.2 7.0 0.00 0.00 0.00 49 1028.7
20260505034751 71 79 1.7 4.3 0.00 0.00 0.00 49 1028.9
20260505034247 71 64 5.2 5.2 0.00 0.00 0.00 49 1029.0
20260505033744 70 353 2.6 3.5 0.00 0.00 0.00 52 1028.9
20260505033242 70 352 3.5 4.3 0.00 0.00 0.00 52 1029.1
20260505032739 71 0 2.6 3.5 0.00 0.00 0.00 51 1029.0
20260505032235 70 344 3.5 5.2 0.00 0.00 0.00 52 1029.1
20260505031733 69 15 4.3 5.2 0.00 0.00 0.00 53 1029.2
20260505031229 69 49 6.1 7.8 0.00 0.00 0.00 52 1029.2
20260505030726 69 337 2.6 4.3 0.00 0.00 0.00 52 1029.2
20260505030222 69 342 6.1 7.0 0.00 0.00 0.00 53 1029.4
20260505025718 68 40 2.6 7.0 0.00 0.00 0.00 53 1029.2
20260505025216 69 56 3.5 7.8 0.00 0.00 0.00 54 1029.3
20260505024714 69 44 2.6 4.3 0.00 0.00 0.00 54 1029.2
20260505024211 68 26 5.2 7.0 0.00 0.00 0.00 55 1029.3
20260505023708 68 98 3.5 7.0 0.00 0.00 0.00 55 1029.2
20260505023206 67 70 2.6 7.0 0.00 0.00 0.00 57 1029.2
20260505022703 67 43 2.6 3.5 0.00 0.00 0.00 57 1029.1
20260505022200 66 80 1.7 4.3 0.00 0.00 0.00 58 1029.2
20260505021656 67 46 4.3 7.0 0.00 0.00 0.00 57 1029.4
20260505021153 67 94 4.3 6.1 0.00 0.00 0.00 58 1029.3
20260505020649 66 22 2.6 6.1 0.00 0.00 0.00 59 1029.2
20260505020145 66 73 2.6 4.3 0.00 0.00 0.00 60 1029.3
20260505015642 66 85 6.1 8.7 0.00 0.00 0.00 58 1029.3
20260505015139 66 70 2.6 5.2 0.00 0.00 0.00 60 1029.4
20260505014636 65 46 1.7 4.3 0.00 0.00 0.00 61 1029.4
20260505014133 65 45 4.3 6.1 0.00 0.00 0.00 62 1029.4
20260505013630 65 100 5.2 6.1 0.00 0.00 0.00 62 1029.4
20260505013127 64 67 2.6 6.1 0.00 0.00 0.00 63 1029.3
20260505012625 64 63 2.6 7.0 0.00 0.00 0.00 64 1029.3
20260505012122 64 63 4.3 5.2 0.00 0.00 0.00 64 1029.3
20260505011618 62 75 3.5 5.2 0.00 0.00 0.00 66 1029.5
20260505011115 62 111 3.5 5.2 0.00 0.00 0.00 67 1029.4
20260505010610 62 91 2.6 5.2 0.00 0.00 0.00 68 1029.4
20260505010107 61 88 4.3 6.1 0.00 0.00 0.00 68 1029.5
20260505005603 62 76 4.3 6.1 0.00 0.00 0.00 68 1029.4
20260505005101 62 79 4.3 5.2 0.00 0.00 0.00 69 1029.4
20260505004558 62 80 3.5 3.5 0.00 0.00 0.00 69 1029.6
20260505004055 60 42 4.3 7.8 0.00 0.00 0.00 70 1029.4
20260505003552 60 64 4.3 7.0 0.00 0.00 0.00 70 1029.1
20260505003049 60 96 5.2 7.8 0.00 0.00 0.00 70 1029.1
20260505002550 60 65 4.3 6.1 0.00 0.00 0.00 70 1029.2
20260505002049 60 74 2.6 5.2 0.00 0.00 0.00 71 1029.2
20260505001545 59 101 3.5 4.3 0.00 0.00 0.00 73 1029.3
20260505001043 59 91 3.5 4.3 0.00 0.00 0.00 74 1029.2
20260505000540 58 96 4.3 4.3 0.00 0.00 0.00 75 1029.0
20260505000038 58 58 2.6 3.5 0.00 0.00 0.00 76 1028.9
20260504235534 57 80 3.5 3.5 0.00 0.00 0.00 77 1028.8
20260504235031 56 79 2.6 5.2 0.00 0.00 0.00 78 1028.7
20260504234528 56 71 2.6 4.3 0.00 0.00 0.00 79 1028.8
20260504234025 56 82 3.5 3.5 0.00 0.00 0.00 80 1028.6
20260504233520 55 61 1.7 3.5 0.00 0.00 0.00 80 1028.5
20260504233017 55 104 2.6 3.5 0.00 0.00 0.00 81 1028.6
20260504232514 54 92 1.7 3.5 0.00 0.00 0.00 82 1028.4
20260504232012 54 79 2.6 3.5 0.00 0.00 0.00 82 1028.4
20260504231508 53 69 2.6 3.5 0.00 0.00 0.00 82 1028.1
20260504231004 53 97 1.7 3.5 0.00 0.00 0.00 83 1028.2
20260504230500 53 103 2.6 3.5 0.00 0.00 0.00 83 1028.1
20260504230000 53 66 1.7 3.5 0.00 0.00 0.00 83 1028.1